PDT,Max TemperatureF,Mean TemperatureF,Min TemperatureF,Max Dew PointF,MeanDew PointF,Min DewpointF,Max Humidity, Mean Humidity, Min Humidity, Max Sea Level PressureIn, Mean Sea Level PressureIn, Min Sea Level PressureIn, Max VisibilityMiles, Mean VisibilityMiles, Min VisibilityMiles, Max Wind SpeedMPH, Mean Wind SpeedMPH, Max Gust SpeedMPH,PrecipitationIn, CloudCover, Events, WindDirDegrees
2012-10-1,84,62,41,25,20,14,37,20,10,30.37,30.29,30.21,10.0,10.0,10.0,9,3,,0.00,0,,44
2012-10-2,86,64,42,27,22,16,39,22,9,30.23,30.16,30.07,10.0,10.0,10.0,18,6,24,0.00,0,,314
2012-10-3,82,62,41,27,22,16,42,22,9,30.19,30.14,30.09,10.0,10.0,10.0,17,7,21,0.00,0,,327
2012-10-4,78,60,41,28,24,18,49,26,13,30.22,30.19,30.16,10.0,10.0,10.0,22,6,31,0.00,0,,296
2012-10-5,73,57,41,32,27,21,49,32,15,30.23,30.19,30.14,10.0,10.0,10.0,16,6,23,0.00,0,,320
2012-10-6,69,53,37,27,20,10,56,32,15,30.19,30.14,30.07,10.0,10.0,10.0,13,6,20,0.00,0,,46
2012-10-7,69,50,32,16,9,3,38,22,9,30.16,30.10,30.03,10.0,9.9,6.0,13,3,20,0.00,0,,52
2012-10-8,69,52,35,36,26,7,65,38,14,30.08,30.05,30.00,10.0,10.0,10.0,18,6,26,0.00,2,Rain,318
2012-10-9,66,52,37,36,29,18,75,41,15,30.10,30.05,30.00,10.0,10.0,10.0,13,8,20,0.00,1,,327
2012-10-10,69,55,41,34,29,23,70,38,18,30.06,30.00,29.94,10.0,10.0,10.0,15,7,28,0.00,2,,51
2012-10-11,66,55,44,43,38,32,76,53,32,30.01,29.96,29.91,10.0,10.0,8.0,16,5,22,0.00,4,Rain,144
2012-10-12,68,57,44,46,39,32,93,58,26,30.23,30.05,29.95,10.0,9.9,5.0,24,6,31,0.00,3,Rain,290
2012-10-13,66,52,37,37,34,30,93,56,32,30.38,30.33,30.24,10.0,10.0,10.0,13,7,18,0.00,0,,311
2012-10-14,73,54,35,36,31,27,81,45,19,30.37,30.29,30.20,10.0,10.0,10.0,15,4,21,0.00,0,,278
2012-10-15,75,60,46,36,30,23,50,32,17,30.25,30.18,30.12,10.0,10.0,10.0,13,5,20,0.00,1,,307
2012-10-16,75,62,48,46,37,23,72,42,18,30.20,30.11,30.06,10.0,10.0,10.0,20,10,28,0.00,1,,314
2012-10-17,66,47,28,23,18,14,55,32,15,30.28,30.22,30.18,10.0,9.9,5.0,12,4,,0.00,0,,85
2012-10-18,71,50,28,32,17,9,48,28,12,30.31,30.25,30.16,10.0,9.9,5.0,16,3,21,0.00,0,,171
2012-10-19,77,59,41,32,26,18,57,32,11,30.21,30.12,30.01,10.0,10.0,10.0,20,8,24,0.00,0,,301
2012-10-20,69,58,48,36,26,9,58,31,10,30.01,29.91,29.84,10.0,10.0,10.0,21,10,31,0.00,0,,288
2012-10-21,59,48,37,36,20,-0,75,38,9,29.89,29.85,29.78,10.0,10.0,10.0,25,11,36,0.00,0,,273
2012-10-22,48,40,32,32,28,18,100,65,32,29.81,29.74,29.68,10.0,9.3,2.5,34,15,50,0.00,3,Rain-Snow,247
2012-10-23,44,38,30,30,21,18,93,55,34,29.99,29.93,29.79,10.0,9.9,8.0,26,15,38,0.00,2,Rain-Snow,267
2012-10-24,48,36,24,32,24,18,87,60,34,30.17,30.04,29.95,10.0,10.0,10.0,25,8,37,0.00,5,,265
2012-10-25,46,36,26,28,24,16,93,64,37,30.40,30.29,30.17,10.0,10.0,10.0,12,3,17,0.00,4,,38
2012-10-26,60,40,19,36,23,10,80,54,29,30.40,30.32,30.24,10.0,10.0,10.0,10,3,,0.00,0,,8
2012-10-27,64,47,30,36,31,27,87,58,30,30.26,30.22,30.17,10.0,9.5,5.0,10,4,17,0.00,0,,341
2012-10-28,68,48,28,32,30,23,87,52,26,30.22,30.18,30.11,10.0,9.4,2.5,13,3,,0.00,0,,289
2012-10-29,71,58,41,28,24,19,46,31,16,30.27,30.22,30.18,10.0,10.0,10.0,15,6,18,0.00,0,,306
2012-10-30,73,53,33,21,18,14,52,28,12,30.22,30.16,30.10,10.0,9.9,5.0,18,5,25,0.00,0,,174
2012-10-31,64,54,44,27,21,14,43,26,15,30.10,30.04,29.98,10.0,10.0,10.0,24,7,37,0.00,1,,231